This is the latest recevied weather packets stored in our database for station/object GOLDWX. If no packets are shown the sender has not sent any weather packets the latest 10 day(s).
| Time | Temp. | Humidity | Pressure | Rain* | Wind** | Luminosity | Snow |
|---|---|---|---|---|---|---|---|
| 1778051740 | 13.33° C | 42% | 1014.9 hPa | 0 mm | - | - | - |
| 1778051439 | 13.33° C | 42% | 1014.9 hPa | 0 mm | - | - | - |
| 1778050838 | 13.33° C | 41% | 1014.7 hPa | 0 mm | - | - | - |
| 1778050537 | 13.33° C | 41% | 1014.7 hPa | 0 mm | - | - | - |
| 1778049935 | 13.33° C | 41% | 1014.8 hPa | 0 mm | - | - | - |
| 1778049634 | 13.33° C | 41% | 1014.7 hPa | 0 mm | - | - | - |
| 1778049033 | 13.33° C | 41% | 1014.6 hPa | 0 mm | - | - | - |
| 1778048731 | 13.33° C | 41% | 1014.6 hPa | 0 mm | - | - | - |
| 1778048128 | 12.78° C | 41% | 1014.6 hPa | 0 mm | - | - | - |
| 1778047828 | 12.78° C | 41% | 1014.5 hPa | 0 mm | - | - | - |
| 1778047225 | 12.78° C | 41% | 1014.5 hPa | 0 mm | - | - | - |
| 1778046925 | 12.78° C | 41% | 1014.4 hPa | 0 mm | - | - | - |
| 1778046323 | 12.78° C | 42% | 1014.3 hPa | 0 mm | - | - | - |
| 1778046022 | 12.78° C | 42% | 1014.4 hPa | 0 mm | - | - | - |
| 1778045420 | 12.22° C | 43% | 1014.2 hPa | 0 mm | - | - | - |
| 1778045120 | 12.22° C | 42% | 1014.2 hPa | 0 mm | - | - | - |
| 1778044217 | 11.67° C | 43% | 1014.2 hPa | 0 mm | - | - | - |
| 1778043615 | 11.67° C | 43% | 1014.1 hPa | 0 mm | - | - | - |
| 1778043315 | 11.67° C | 43% | 1013.9 hPa | 0 mm | - | - | - |
| 1778042713 | 11.67° C | 42% | 1013.9 hPa | 0 mm | - | - | - |
| 1778042412 | 12.22° C | 41% | 1013.8 hPa | 0 mm | - | - | - |
| 1778041810 | 12.78° C | 40% | 1013.7 hPa | 0 mm | - | - | - |
| 1778041510 | 12.78° C | 39% | 1013.6 hPa | 0 mm | - | - | - |
| 1778040908 | 13.89° C | 37% | 1013.4 hPa | 0 mm | - | - | - |
| 1778040607 | 13.89° C | 36% | 1013.3 hPa | 0 mm | - | - | - |
* Rain since midnight (hover to see other rain measurements)
** Current wind speed in m/s (hover to see current wind gust speed)